Location: Newark
(34.6283°N, 36.0776°E)
Time: 11:58:28
(UTC+00:00)

Vanguard 3 - Visible Passes

Search period start: 20 September 2019 00:00
Search period end: 30 September 2019 00:00
Orbit: 508 x 3263 km, 33.4° (Epoch: 19 September)

Date Brightness Start Highest point End Pass type
(mag) Time Alt. Az. Time Alt. Az. Time Alt. Az.
20 Sep 10.8 02:30:00 10° S 02:38:44 22° SE 02:50:20 10° E visible
22 Sep 10.5 02:13:09 10° S 02:21:35 24° SE 02:33:23 10° E visible
23 Sep 10.8 01:06:41 10° SE 01:07:51 10° ESE 01:09:03 10° ESE visible
24 Sep 10.3 01:56:31 10° S 02:04:34 26° SE 02:16:18 10° E visible
25 Sep 10.6 00:47:58 10° SE 00:50:58 12° SE 00:54:22 10° ESE visible
25 Sep 10.1 02:52:04 10° SW 03:01:55 47° SE 03:17:51 10° ENE visible
26 Sep 10.1 01:40:04 10° S 01:47:39 29° SE 01:59:09 10° E visible
27 Sep 10.3 00:30:35 10° SSE 00:34:11 13° SE 00:38:29 10° ESE visible
27 Sep 9.8 02:35:55 10° SW 02:45:02 50° SSE 03:00:24 10° ENE visible
28 Sep 9.8 01:24:45 14° S 01:30:52 31° SE 01:41:59 10° E visible
29 Sep 10.1 00:15:15 13° SE 00:17:29 14° SE 00:22:16 10° E visible
29 Sep 9.5 02:19:53 10° SW 02:28:17 53° SSE 02:42:56 10° E visible
